KC5EZZ-2 Weather Reports


time (UTC)temp
F
wind
direction
speed
knots
gust
knots
rain 1hr
in
rain 24hr
in
rain mn
in
humidity
%
barometer
mb
20260502152101 65 248 2.6 4.3 0.00 0.07 0.00
20260502151602 65 24 2.6 2.6 0.00 0.07 0.00
20260502151102 64 14 1.7 0.9 0.00 0.07 0.00
20260502150734 64 302 3.5 4.3 0.00 0.07 0.00
20260502150600 64 302 3.5 4.3 0.00 0.07 0.00
20260502130549 65 252 2.6 1.7 0.00 0.02 0.07
20260502123546 57 264 0.0 0.0 0.00 0.02 0.07
20260502123047 55 264 0.0 0.0 0.00 0.02 0.07
20260502122547 54 264 0.0 0.0 0.00 0.02 0.07
20260502122045 52 264 0.0 0.0 0.00 0.02 0.07
20260502121546 50 264 0.0 0.0 0.00 0.02 0.07
20260502121046 49 264 0.0 0.0 0.00 0.02 0.07
20260502120544 48 264 0.0 0.0 0.00 0.02 0.07
20260502115545 48 264 0.0 0.0 0.00 0.02 0.07
20260502115043 49 264 0.0 0.0 0.00 0.02 0.07
20260502114543 49 264 0.0 0.0 0.00 0.02 0.07
20260502114044 49 264 0.0 0.0 0.00 0.02 0.07
20260502113042 49 264 0.0 0.0 0.00 0.02 0.07
20260502112542 49 264 0.0 0.0 0.00 0.02 0.07
20260502112040 49 264 0.0 0.0 0.00 0.02 0.07
20260502111540 49 264 0.0 0.0 0.00 0.02 0.07
20260502111041 50 264 0.0 0.0 0.00 0.02 0.07
20260502110538 50 264 0.0 0.0 0.00 0.02 0.07
20260502110039 50 264 0.0 0.0 0.00 0.02 0.07
20260502105540 50 264 0.0 0.0 0.00 0.02 0.07
20260502105037 50 259 0.9 0.9 0.00 0.02 0.07
20260502104538 50 243 1.7 0.9 0.00 0.02 0.07
20260502104038 50 238 1.7 0.9 0.00 0.02 0.07
20260502103536 50 246 2.6 2.6 0.00 0.02 0.07
20260502103036 50 253 1.7 1.7 0.00 0.02 0.07
20260502102537 50 248 2.6 2.6 0.00 0.02 0.07
20260502102035 50 243 2.6 3.5 0.00 0.02 0.07
20260502101535 50 249 2.6 2.6 0.00 0.02 0.07
20260502101036 50 252 2.6 3.5 0.00 0.02 0.07
20260502100533 50 260 1.7 1.7 0.00 0.02 0.07
20260502100308 49 293 0.0 0.0 0.00 0.02 0.07
20260502091530 51 335 2.6 1.7 0.00 0.02 0.07
20260502091030 51 321 0.0 0.0 0.00 0.02 0.07
20260502090528 51 338 0.0 0.0 0.00 0.02 0.07
20260502071520 51 278 2.6 2.6 0.00 0.02 0.07
20260502071020 51 304 3.5 3.5 0.00 0.02 0.07
20260502070518 51 302 3.5 3.5 0.00 0.02 0.07
20260502070018 51 290 2.6 1.7 0.00 0.02 0.07
20260502065519 50 277 1.7 2.6 0.00 0.02 0.07
20260502065016 50 283 2.6 2.6 0.00 0.02 0.07
20260502064517 50 260 0.0 0.0 0.00 0.02 0.07
20260502064017 50 260 0.0 0.0 0.00 0.02 0.07
20260502063515 50 260 0.0 0.0 0.00 0.02 0.07
20260502063015 50 260 0.0 0.0 0.00 0.02 0.07
20260502062516 50 260 0.0 0.0 0.00 0.02 0.07
20260502062013 49 260 0.0 0.0 0.00 0.02 0.07
20260502061514 49 219 0.0 0.0 0.00 0.02 0.07
20260502061014 49 270 0.9 0.0 0.00 0.02 0.07
20260502060512 49 253 0.0 0.0 0.00 0.02 0.07
20260502060012 49 253 0.0 0.0 0.00 0.02 0.07
20260502055513 49 253 0.0 0.0 0.00 0.02 0.07
20260502055010 48 253 0.0 0.0 0.00 0.02 0.07
20260502054511 48 253 0.0 0.0 0.00 0.02 0.07
20260502054011 48 253 0.0 0.0 0.00 0.02 0.07
20260502053509 48 253 0.0 0.0 0.00 0.02 0.07
20260502053009 48 253 0.0 0.0 0.00 0.02 0.07
20260502052509 48 253 0.0 0.0 0.00 0.02 0.07
20260502052007 49 253 0.0 0.0 0.00 0.02 0.07
20260502051508 49 253 0.0 0.0 0.00 0.02 0.07
20260502051008 48 253 0.0 0.0 0.00 0.02 0.07
20260502050506 48 253 0.0 0.0 0.00 0.02 0.07
20260502050006 49 253 0.0 0.0 0.00 0.02 0.07
20260502045507 49 253 0.0 0.0 0.00 0.02 0.07
20260502045005 49 253 0.9 0.9 0.00 0.02 0.07
20260502044505 49 197 0.0 0.0 0.00 0.02 0.07
20260502044006 49 197 0.0 0.0 0.00 0.02 0.07
20260502043504 49 197 0.0 0.0 0.00 0.02 0.07
20260502043004 50 250 1.7 1.7 0.00 0.02 0.07
20260502042002 50 242 1.7 1.7 0.00 0.02 0.07
20260502041503 50 356 0.0 0.0 0.00 0.02 0.07
20260502041003 50 356 0.0 0.0 0.00 0.02 0.07
20260502040501 51 356 0.0 0.0 0.00 0.02 0.07
20260502040002 51 356 0.0 0.0 0.00 0.02 0.07
20260502035502 51 356 0.0 0.0 0.00 0.02 0.07
20260502035000 51 356 0.0 0.0 0.00 0.02 0.07
20260502034500 51 356 0.9 0.0 0.00 0.02 0.07
20260502034001 51 345 0.0 0.0 0.00 0.02 0.07
20260502033458 52 345 0.0 0.0 0.00 0.02 0.07
20260502032959 52 345 0.9 0.9 0.00 0.02 0.07
20260502032459 53 13 1.7 1.7 0.00 0.02 0.07
20260502031957 53 24 3.5 2.6 0.00 0.02 0.07
20260502031457 53 25 2.6 2.6 0.00 0.02 0.07
20260502030958 54 20 2.6 2.6 0.00 0.02 0.07
20260502030455 54 38 3.5 5.2 0.00 0.02 0.07
20260502025956 54 39 3.5 3.5 0.00 0.02 0.07
20260502025457 54 41 3.5 3.5 0.00 0.02 0.07
20260502024954 54 27 3.5 4.3 0.00 0.02 0.07
20260502024455 54 14 3.5 3.5 0.00 0.02 0.07
20260502023955 54 24 2.6 2.6 0.00 0.02 0.07
20260502023553 54 28 2.6 2.6 0.00 0.02 0.07
20260502023453 54 21 2.6 2.6 0.00 0.02 0.07
20260502022953 54 28 2.6 2.6 0.00 0.02 0.07
20260502022454 54 27 3.5 3.5 0.00 0.02 0.07
20260502021951 54 27 2.6 2.6 0.00 0.02 0.07
20260502021452 54 28 4.3 3.5 0.00 0.02 0.07
20260502020953 55 23 3.5 2.6 0.00 0.02 0.07
20260502020450 54 25 2.6 3.5 0.00 0.02 0.07
20260502020243 55 41 1.7 1.7 0.00 0.02 0.07
20260502015951 55 41 1.7 1.7 0.00 0.02 0.07
20260502015451 55 28 2.6 3.5 0.00 0.02 0.07
20260502014949 55 28 2.6 2.6 0.00 0.02 0.07
20260502014450 55 35 3.5 2.6 0.00 0.02 0.07
20260502013950 55 46 3.5 3.5 0.00 0.02 0.07
20260502013448 55 35 3.5 2.6 0.00 0.02 0.07
20260502013356 56 32 3.5 2.6 0.00 0.02 0.07
20260502012948 56 32 3.5 2.6 0.00 0.02 0.07
20260502012449 56 28 4.3 5.2 0.00 0.02 0.07
20260502011947 56 11 3.5 5.2 0.00 0.02 0.07
20260502011447 55 48 5.2 5.2 0.00 0.02 0.07
20260502010948 56 34 4.3 6.1 0.00 0.02 0.07
20260502010445 56 38 5.2 7.8 0.00 0.02 0.07
20260502005946 56 41 7.0 6.1 0.00 0.02 0.07
20260502005447 56 37 8.7 5.2 0.00 0.02 0.07
20260502004943 56 39 8.7 10.4 0.00 0.02 0.07
20260502004444 56 38 8.7 7.0 0.00 0.02 0.07
20260502003944 57 38 6.1 7.8 0.00 0.02 0.07
20260502003442 57 20 9.6 8.7 0.00 0.02 0.07
20260502002443 57 18 11.3 9.6 0.00 0.02 0.07
20260502001941 57 37 10.4 11.3 0.00 0.02 0.07
20260502001441 58 4 7.8 9.6 0.00 0.02 0.07
20260502000942 58 20 7.8 9.6 0.00 0.02 0.07
20260502000439 57 25 7.8 8.7 0.00 0.02 0.07
20260501235940 58 7 9.6 9.6 0.00 0.02 0.07
20260501235441 57 3 7.8 8.7 0.00 0.02 0.07
20260501234938 57 23 9.6 11.3 0.00 0.02 0.07
20260501234439 57 10 7.0 8.7 0.00 0.02 0.07
20260501233939 56 31 10.4 8.7 0.00 0.02 0.07
20260501233437 57 7 9.6 10.4 0.00 0.02 0.07
20260501232938 57 25 10.4 9.6 0.00 0.02 0.07
20260501232438 57 23 9.6 8.7 0.00 0.02 0.07
20260501231936 58 46 10.4 8.7 0.00 0.02 0.07
20260501231436 58 31 10.4 7.0 0.00 0.02 0.07
20260501230937 57 14 8.7 11.3 0.00 0.02 0.07
20260501230435 57 13 9.6 11.3 0.00 0.02 0.07
20260501225935 58 58 8.7 13.9 0.00 0.02 0.07
20260501225436 58 13 8.7 6.1 0.00 0.02 0.07
20260501224934 57 27 10.4 9.6 0.00 0.02 0.07
20260501224435 57 17 10.4 9.6 0.00 0.02 0.07
20260501223935 57 60 8.7 8.7 0.00 0.02 0.07
20260501223433 57 10 5.2 4.3 0.00 0.02 0.07
20260501222933 56 4 7.8 10.4 0.00 0.02 0.07
20260501222434 56 0 10.4 11.3 0.00 0.02 0.07
20260501221932 56 7 11.3 9.6 0.00 0.02 0.07
20260501221432 55 21 10.4 8.7 0.00 0.02 0.07
20260501220933 56 21 11.3 13.0 0.00 0.02 0.07
20260501220431 55 17 9.6 12.2 0.00 0.02 0.07
20260501215931 56 10 12.2 13.0 0.00 0.02 0.07
20260501215432 56 17 11.3 9.6 0.00 0.02 0.07
20260501214929 56 27 10.4 9.6 0.00 0.02 0.07
20260501214430 56 25 10.4 9.6 0.00 0.02 0.07
20260501213930 56 6 10.4 9.6 0.00 0.02 0.07
20260501213428 55 14 7.8 9.6 0.00 0.02 0.07
20260501212929 56 38 8.7 9.6 0.00 0.02 0.07
20260501212429 56 24 10.4 8.7 0.00 0.02 0.07
20260501211927 56 51 7.8 7.8 0.00 0.02 0.07
20260501211428 55 1 11.3 11.3 0.00 0.02 0.07
20260501210928 56 11 12.2 10.4 0.00 0.02 0.07
20260501205926 56 39 13.0 15.6 0.00 0.02 0.07
20260501205427 56 27 13.0 12.2 0.02 0.02 0.07
20260501204925 56 10 12.2 14.8 0.02 0.02 0.07
20260501204425 56 1 15.6 16.5 0.02 0.02 0.07
20260501203926 56 20 13.0 14.8 0.02 0.02 0.07
20260501203423 56 7 12.2 14.8 0.02 0.02 0.07
20260501202924 56 11 12.2 13.0 0.02 0.02 0.07
20260501202424 56 4 13.0 15.6 0.02 0.02 0.07
20260501201922 56 10 13.0 12.2 0.02 0.02 0.07
20260501201422 56 4 10.4 10.4 0.02 0.02 0.07
20260501200420 55 10 11.3 9.6 0.02 0.02 0.07
20260501195921 56 37 11.3 11.3 0.02 0.02 0.07
20260501195421 55 0 11.3 11.3 0.02 0.02 0.07
20260501194919 54 15 11.3 14.8 0.02 0.02 0.07
20260501194420 53 21 13.0 15.6 0.02 0.02 0.07
20260501193920 53 23 12.2 10.4 0.02 0.02 0.07
20260501193418 53 3 13.0 13.0 0.02 0.02 0.07
20260501192918 53 14 12.2 7.8 0.02 0.02 0.07
20260501192419 53 14 11.3 15.6 0.02 0.02 0.07
20260501191916 53 356 11.3 10.4 0.02 0.02 0.07
20260501191417 53 7 10.4 10.4 0.02 0.02 0.07
20260501190917 53 343 12.2 13.0 0.02 0.02 0.05
20260501190415 53 356 10.4 11.3 0.02 0.02 0.05
20260501185915 53 352 12.2 9.6 0.02 0.02 0.05
20260501185416 53 340 13.0 11.3 0.02 0.02 0.05
20260501184913 54 318 9.6 8.7 0.02 0.02 0.05
20260501184414 54 20 9.6 9.6 0.02 0.02 0.05
20260501183915 54 7 7.0 6.1 0.02 0.02 0.04
20260501183412 53 4 7.0 7.0 0.02 0.02 0.04
20260501182913 53 8 7.8 7.8 0.02 0.02 0.04
20260501182413 53 349 9.6 10.4 0.02 0.02 0.03
20260501181911 53 339 10.4 7.8 0.02 0.02 0.03
20260501181411 53 0 10.4 7.8 0.02 0.02 0.03
20260501180912 53 356 9.6 8.7 0.02 0.02 0.03
20260501180409 53 338 12.2 13.9 0.02 0.02 0.03
20260501175910 53 325 10.4 12.2 0.02 0.02 0.03
20260501175452 54 345 11.3 10.4 0.00 0.02 0.03
20260501175410 54 345 11.3 10.4 0.00 0.02 0.03
20260501174908 54 0 8.7 7.8 0.00 0.02 0.01
20260501174408 54 359 9.6 7.8 0.00 0.02 0.01
20260501173909 54 6 9.6 8.7 0.00 0.02 0.01
20260501173406 54 353 12.2 9.6 0.00 0.02 0.01
20260501172907 54 356 9.6 9.6 0.00 0.02 0.01
20260501172407 54 339 8.7 15.6 0.00 0.02 0.01
20260501171905 55 1 8.7 8.7 0.00 0.02 0.01
20260501171405 54 13 9.6 7.8 0.00 0.02 0.01
20260501170943 54 17 11.3 13.0 0.00 0.02 0.01
20260501170906 54 17 11.3 13.0 0.00 0.02 0.01
20260501170404 54 11 13.9 13.0 0.00 0.02 0.01
20260501165904 54 23 12.2 8.7 0.00 0.02 0.01
20260501165405 55 31 7.8 7.0 0.01 0.02 0.01
20260501164902 54 18 10.4 8.7 0.01 0.02 0.01
20260501164403 55 24 8.7 7.8 0.01 0.02 0.01
20260501163903 55 32 9.6 10.4 0.01 0.02 0.01
20260501163401 55 1 9.6 11.3 0.01 0.02 0.01
20260501162901 55 24 10.4 11.3 0.01 0.02 0.01
20260501162402 54 34 9.6 7.8 0.01 0.02 0.01
20260501161859 54 39 10.4 11.3 0.01 0.02 0.01
20260501161400 54 23 7.8 8.7 0.01 0.02 0.01
20260501160900 54 21 7.8 7.0 0.01 0.02 0.01
20260501160358 54 37 9.6 11.3 0.01 0.02 0.01
20260501155858 55 15 11.3 12.2 0.01 0.02 0.01
20260501155359 54 7 8.7 6.1 0.00 0.02 0.01
20260501154856 54 35 8.7 9.6 0.00 0.02 0.01